Flag for Norway Weather past 2 weeks in Fauske, Norway

Now
50 °F

Light rain. Broken clouds.


Feels Like: 49 °F
Forecast: 45 / 56 °F
Wind: 3 mph from Northwest

Location: Bodo Vi

Current Time: Sep 4, 2015 at 7:40:04 PM

Latest Report: Sep 4, 2015 at 6:50 PM


Visibility: N/A

Pressure: 29.62 "Hg

Humidity: 82%

Dew point: 45 °F

Location of FauskeLocation

Historic Weather in Fauske — Graph

°F

Fauske temperature yesterday

Maximum temperature yesterday: 52 °F (at 11:50 AM)
Minimum temperature yesterday: 41 °F (at 1:50 AM)
Average temperature yesterday: 48 °F

Past Weeks' High & Low Weather Summary

 TemperatureHumidityPressure
High75 °F (Aug 21, 4:20 PM)100% (Aug 23, 2:50 AM)30.33 "Hg (Aug 23, 2:50 AM)
Low41 °F (Sep 3, 1:50 AM)41% (Aug 21, 4:20 PM)29.27 "Hg (Aug 28, 12:50 PM)
Average59 °F76%29.91 "Hg
* Reported Aug 20 6:20 PM — Sep 4 6:20 PM, Fauske, Weather by CustomWeather, © 2015

Note: Actual official high and low records may vary slightly from our data, if they occured in-between our weather recording intervals... More about our weather records

Advertising

Fauske weather history for previous 24 hours

 ConditionsComfort  
Time TempWeatherWind HumidityBarometerVisibility
6:20 PM
Fri, Sep 4
50 °FBroken clouds.5 mph88%29.62 "HgN/A
5:50 PM50 °FBroken clouds.6 mph88%29.62 "HgN/A
5:20 PM50 °FBroken clouds.5 mph88%29.62 "HgN/A
4:50 PM50 °FBroken clouds.5 mph88%29.62 "HgN/A
4:20 PM50 °FBroken clouds.6 mph94%29.65 "HgN/A
3:50 PM50 °FLight rain. Broken clouds.8 mph94%29.65 "HgN/A
3:20 PM50 °FLight rain. Broken clouds.6 mph94%29.65 "HgN/A
2:50 PM50 °FBroken clouds.3 mph94%29.65 "HgN/A
2:20 PM50 °FBroken clouds.7 mph94%29.68 "HgN/A
1:50 PM50 °FBroken clouds.9 mph94%29.68 "HgN/A
1:20 PM52 °FScattered showers. Broken clouds.5 mph82%29.68 "HgN/A
12:50 PM50 °FScattered showers. Broken clouds.3 mph88%29.68 "HgN/A
12:20 PM48 °FScattered showers. Broken clouds.6 mph94%29.68 "HgN/A
11:50 AM50 °FScattered showers. Broken clouds.7 mph94%29.68 "HgN/A
11:20 AM48 °FDrizzle. Broken clouds.5 mph94%29.71 "HgN/A
10:50 AM48 °FDrizzle. Broken clouds.3 mph94%29.71 "HgN/A
10:20 AM48 °FScattered showers. Broken clouds.6 mph94%29.71 "HgN/A
9:50 AM48 °FScattered showers. Broken clouds.5 mph94%29.71 "HgN/A
9:20 AM48 °FScattered showers. Broken clouds.5 mph94%29.71 "HgN/A
8:50 AM48 °FDrizzle. Broken clouds.6 mph94%29.71 "HgN/A
8:20 AM48 °FDrizzle. Broken clouds.5 mph94%29.71 "HgN/A
7:50 AM46 °FMixture of precip. Broken clouds.7 mph100%29.71 "HgN/A
7:20 AM48 °FMixture of precip. Broken clouds.7 mph94%29.74 "HgN/A
6:50 AM48 °FMixture of precip. Broken clouds.2 mph94%29.74 "HgN/A
6:20 AM48 °FMixture of precip. Partly cloudy.8 mph94%29.74 "HgN/A
5:50 AM48 °FSprinkles. Partly cloudy.8 mph94%29.77 "HgN/A
5:20 AM48 °FSprinkles. Partly cloudy.9 mph87%29.77 "HgN/A
4:50 AM48 °FPassing clouds.9 mph87%29.77 "HgN/A
3:50 AM48 °FPassing clouds.6 mph87%29.80 "HgN/A
2:50 AM48 °FPassing clouds.5 mph87%29.80 "HgN/A
1:50 AM48 °FPassing clouds.6 mph82%29.83 "HgN/A
12:50 AM48 °FPassing clouds.2 mph82%29.83 "HgN/A
12:20 AM48 °FPassing clouds.1 mph82%29.83 "HgN/A
11:50 PM
Thu, Sep 3
48 °FPassing clouds.2 mph82%29.86 "HgN/A
11:20 PM48 °FPassing clouds.3 mph82%29.86 "HgN/A
10:50 PM48 °FPassing clouds.6 mph82%29.86 "HgN/A
10:20 PM48 °FPassing clouds.5 mph82%29.89 "HgN/A
9:50 PM48 °FPassing clouds.5 mph76%29.89 "HgN/A
9:20 PM48 °FPartly sunny.3 mph76%29.89 "HgN/A
8:50 PM48 °FPartly sunny.5 mph76%29.89 "HgN/A
8:20 PM48 °FPartly sunny.7 mph76%29.92 "HgN/A
7:50 PM48 °FPartly sunny.7 mph76%29.92 "HgN/A
7:20 PM48 °FPartly sunny.8 mph82%29.92 "HgN/A
Weather by CustomWeather, © 2015

See weather overviewHow to use our weather pages